Location: Newark
(40.5782°N, 9.2582°E)
Time: 19:20:50
(UTC+00:00)

OTV 5 (USA 277) - Visible Passes

Search period start: 19 October 2019 00:00
Search period end: 29 October 2019 00:00
Orbit: 310 x 324 km, 54.5° (Epoch: 17 October)

Date Brightness Start Highest point End Pass type
(mag) Time Alt. Az. Time Alt. Az. Time Alt. Az.
19 Oct ? 03:19:31 10° NE 03:19:31 10° NE 03:19:40 10° NE visible
19 Oct ? 04:50:26 12° NW 04:52:56 73° SW 04:55:39 10° SE visible
20 Oct ? 03:34:07 19° ENE 03:34:07 19° ENE 03:35:25 10° E visible
20 Oct ? 05:05:06 10° WNW 05:07:21 23° SW 05:09:36 10° S visible
21 Oct ? 03:48:52 30° ESE 03:48:52 30° ESE 03:50:27 10° ESE visible
22 Oct ? 04:03:45 20° SSE 04:03:45 20° SSE 04:04:50 10° SSE visible
26 Oct ? 18:09:01 10° SSW 18:09:16 12° SSW 18:09:16 12° SSW visible
27 Oct ? 18:23:10 10° SW 18:24:03 18° SW 18:24:03 18° SW visible
28 Oct ? 17:04:28 10° S 17:06:22 17° SE 17:07:46 13° E visible
28 Oct ? 18:38:02 10° W 18:38:41 15° W 18:38:41 15° W visible
